Homer, AK

10:18 PM AKST on December 16, 2017 (GMT -0900)
Homer

Weather History for PAHO - October, 2011

Change the Weather History Date:

Monday, October 3, 2011

  Actual Average Record
Temperature  
Mean Temperature 42 °F -  
Max Temperature 48 °F 48 °F 59 °F (1954)
Min Temperature 36 °F 34 °F 25 °F (1953)
Degree Days  
Heating Degree Days 22    
Moisture  
Dew Point 39 °F    
Average Humidity 89    
Maximum Humidity 100    
Minimum Humidity 68    
Precipitation  
Precipitation 0.02 in - - ()
Sea Level Pressure  
Sea Level Pressure 29.44 in    
Wind  
Wind Speed 4 mph (ENE)    
Max Wind Speed 9 mph    
Max Gust Speed -    
Visibility 10 miles    
Events Rain    
Averages and records for this station are not official NWS values.
T = Trace of Precipitation, MM = Missing Value Source: NWS Daily Summary

Daily Weather History Graph

Daily Weather History Graph

Search for Another Location

Airport or City:

Trip Planner

Search our weather history database for the weather conditions in past years. The results will help you decide how hot, cold, wet, or windy it might be!

Date:

Astronomy

Oct. 03, 2011 Rise Set
Actual Time 8:15 AM AKDT 7:32 PM AKDT
Civil Twilight 7:34 AM AKDT 8:13 PM AKDT
Nautical Twilight 6:46 AM AKDT 9:01 PM AKDT
Astronomical Twilight 5:56 AM AKDT 9:51 PM AKDT
Moon 4:44 PM AKDT (10/3) 11:28 PM AKDT (10/3)
Length of Visible Light 12h 38m
Length of Day
11h 16m
Waxing Crescent, 47% of the Moon is Illuminated
Oct 3
Waxing Crescent
Oct 3
First Quarter
Oct 11
Full
Oct 19
Last Quarter
Oct 26
New

Hourly Weather History & Observations

Time (AKDT) Temp. Windchill Dew Point Humidity Pressure Visibility Wind Dir Wind Speed Gust Speed Precip Events Conditions
12:53 AM 42.1 °F 36.6 °F 39.9 °F 92% 29.49 in 10.0 mi NE 9.2 mph - 0.01 in Rain Light Rain
1:53 AM 39.0 °F 34.8 °F 37.9 °F 96% 29.48 in 10.0 mi ENE 5.8 mph - 0.00 in   Partly Cloudy
2:53 AM 37.0 °F 34.5 °F 36.0 °F 96% 29.47 in 10.0 mi East 3.5 mph - N/A   Partly Cloudy
3:53 AM 37.9 °F - 37.0 °F 97% 29.46 in 10.0 mi Calm Calm - N/A   Overcast
4:53 AM 37.9 °F 33.5 °F 37.0 °F 97% 29.45 in 10.0 mi ENE 5.8 mph - 0.00 in Rain Light Rain
5:53 AM 37.9 °F 33.5 °F 37.0 °F 97% 29.43 in 10.0 mi NE 5.8 mph - 0.01 in   Mostly Cloudy
6:53 AM 37.9 °F 35.5 °F 37.0 °F 97% 29.43 in 10.0 mi NE 3.5 mph - N/A   Scattered Clouds
7:53 AM 37.0 °F 34.5 °F 36.0 °F 96% 29.42 in 10.0 mi NE 3.5 mph - N/A   Mostly Cloudy
8:53 AM 37.0 °F 34.5 °F 37.0 °F 100% 29.42 in 10.0 mi NE 3.5 mph - N/A   Scattered Clouds
9:53 AM 43.0 °F 40.3 °F 39.0 °F 86% 29.42 in 10.0 mi East 4.6 mph - N/A   Mostly Cloudy
10:53 AM 44.1 °F 41.5 °F 42.1 °F 93% 29.42 in 10.0 mi NE 4.6 mph - 0.00 in   Mostly Cloudy
11:53 AM 45.0 °F 42.6 °F 42.1 °F 90% 29.42 in 10.0 mi ENE 4.6 mph - N/A   Overcast
12:53 PM 46.0 °F 43.1 °F 41.0 °F 83% 29.42 in 10.0 mi ENE 5.8 mph - N/A   Partly Cloudy
1:53 PM 48.0 °F - 39.9 °F 74% 29.41 in 10.0 mi ESE 4.6 mph - N/A   Clear
2:53 PM 46.9 °F - 41.0 °F 80% 29.42 in 10.0 mi ESE 3.5 mph - N/A   Overcast
3:53 PM 48.0 °F - 37.9 °F 68% 29.42 in 10.0 mi Calm Calm - N/A   Overcast
4:53 PM 46.9 °F - 39.0 °F 74% 29.42 in 10.0 mi Calm Calm - N/A   Mostly Cloudy
5:53 PM 48.0 °F - 37.9 °F 68% 29.43 in 10.0 mi WSW 4.6 mph - N/A   Clear
6:53 PM 45.0 °F 42.6 °F 41.0 °F 86% 29.44 in 10.0 mi WSW 4.6 mph - N/A   Clear
7:53 PM 44.1 °F - 39.9 °F 85% 29.45 in 10.0 mi Calm Calm - N/A   Partly Cloudy
8:53 PM 42.1 °F - 39.9 °F 92% 29.46 in 10.0 mi Calm Calm - N/A   Clear
9:53 PM 39.0 °F - 37.9 °F 96% 29.48 in 10.0 mi Calm Calm - N/A   Partly Cloudy
10:53 PM 37.0 °F - 37.0 °F 100% 29.49 in 10.0 mi Calm Calm - N/A   Partly Cloudy
11:53 PM 36.0 °F - 36.0 °F 100% 29.50 in 10.0 mi Calm Calm - N/A   Clear